Flag for Israel Weather past 2 weeks in Ramat Gan, Israel

Now
64 °F

Passing clouds.


Feels Like: 64 °F
Forecast: 55 / 64 °F
Wind: 9 mph from West

Location: Dov Airport

Current Time: Mar 3, 2015 at 3:32:53 PM

Latest Report: Mar 3, 2015 at 2:50 PM


Visibility: N/A

Pressure: 30.09 "Hg

Humidity: 64%

Dew point: 52 °F

Location of Ramat GanLocation

Historic Weather in Ramat Gan — Graph

°F

Ramat Gan temperature yesterday

Maximum temperature yesterday: 66 °F (at 1:50 PM)
Minimum temperature yesterday: 55 °F (at 5:50 AM)
Average temperature yesterday: 62 °F

Past Weeks' High & Low Weather Summary

 TemperatureHumidityPressure
High82 °F (Feb 27, 11:50 AM)88% (Feb 25, 7:50 AM)30.18 "Hg (Feb 25, 7:50 AM)
Low46 °F (Feb 20, 8:50 AM)17% (Feb 27, 11:50 AM)29.65 "Hg (Feb 20, 6:50 AM)
Average60 °F61%29.99 "Hg
* Reported Feb 16 1:50 PM — Mar 3 1:50 PM, Ramat Gan, Weather by CustomWeather, © 2015

Note: Actual official high and low records may vary slightly from our data, if they occured in-between our weather recording intervals... More about our weather records

Advertising

Ramat Gan weather history for previous 24 hours

 ConditionsComfort  
Time TempWeatherWind HumidityBarometerVisibility
1:50 PM
Tue, Mar 3
64 °FPassing clouds.9 mph64%30.09 "HgN/A
12:50 PM64 °FPassing clouds.10 mph68%30.09 "HgN/A
11:50 AM64 °FPassing clouds.9 mph68%30.12 "HgN/A
10:50 AM64 °FPassing clouds.8 mph68%30.12 "HgN/A
9:50 AM63 °FPassing clouds.9 mph68%30.12 "HgN/A
8:50 AM61 °FPassing clouds.7 mph72%30.12 "HgN/A
7:50 AM59 °FSunny.6 mph77%30.12 "Hg10 mi
6:50 AM55 °FSunny.5 mph82%30.09 "Hg10 mi
5:50 AM55 °FPassing clouds.3 mph77%30.09 "HgN/A
4:50 AM55 °FPassing clouds.3 mph77%30.09 "HgN/A
10:50 PM
Mon, Mar 2
61 °FPassing clouds.6 mph68%30.09 "HgN/A
9:50 PM61 °FPassing clouds.6 mph68%30.12 "HgN/A
8:50 PM63 °FPassing clouds.7 mph59%30.12 "HgN/A
7:50 PM63 °FPassing clouds.8 mph59%30.09 "HgN/A
6:50 PM63 °FPassing clouds.8 mph64%30.09 "HgN/A
5:50 PM63 °FPassing clouds.10 mph64%30.07 "HgN/A
4:50 PM63 °FBroken clouds.14 mph68%30.07 "HgN/A
3:50 PM64 °FPartly sunny.14 mph64%30.07 "HgN/A
Weather by CustomWeather, © 2015

See weather overviewHow to use our weather pages